User: anonymous   Login
Location: Clinton NY
(43.0598°N, 75.3602°W)
Time: 22:57:53
(UTC-04:00)
Language:

Cosmos-2242 - Orbit

View from above orbital plane
View from above orbital plane
View from above satellite
View from above satellite

Ground track
Ground track

The orbit data is extracted from the following two-line orbital elements,

1 22626U 93024A   16239.44970794  .00000220  00000-0  21503-4 0  9990
2 22626  82.5241 319.6436 0019594  23.7560 336.4557 14.87505557262331
Epoch (UTC): 26 August 2016 10:47:34
Eccentricity: 0.0019594
inclination: 82.5241°
perigee height: 592 km
apogee height: 619 km
right ascension of ascending node: 319.6436°
argument of perigee: 23.7560°
revolutions per day: 14.87505557
mean anomaly at epoch: 336.4557°
orbit number at epoch: 26233

The dashed part of the orbit path shows where the satellite is in the earth's shadow,  

DLR